Temperature
21 20 20 20 19 19 19 18 18 18 18 17 17 17 17 16 16 16 16 16 16 16 16 16 16 16 15 15 15 15 15 15 14 13 13 13 12 12 12 12 12 12 12
21 21 20 20 19 19 19 18 18 18 17 17 17 17 16 16 16 16 16 16 16 15 15 15 15 15 15 15 15 15 14 14 14 13 13 12 12 12 12 12 12 11 11
21 21 20 20 20 19 19 18 18 18 17 17 17 16 16 16 16 16 15 15 15 15 15 15 15 15 15 14 14 14 14 14 14 13 13 12 12 12 12 12 11 11 11
21 20 20 20 20 19 19 18 18 17 17 17 16 16 16 16 15 15 15 15 15 15 15 15 15 14 14 14 14 14 14 13 13 13 13 12 12 12 12 12 11 11 11
20 20 20 20 20 19 19 18 18 17 17 17 16 16 16 15 15 15 15 15 15 15 15 14 14 14 14 14 14 13 13 13 13 13 13 12 12 12 11 11 11 11 10
20 20 20 20 19 19 18 18 17 17 17 16 16 15 15 15 16 16 15 15 14 14 14 14 14 14 14 14 14 13 13 13 13 13 13 12 12 12 11 11 11 11 10
20 20 20 19 19 19 18 18 17 17 16 16 16 16 16 16 15 15 15 15 14 14 14 13 14 13 13 13 13 13 13 13 13 12 12 12 12 11 11 11 11 11 10
20 20 20 19 19 18 18 17 17 17 16 16 16 15 15 15 15 15 15 14 14 14 13 13 13 13 13 13 13 12 12 12 12 12 11 11 11 11 11 11 10 10 10
20 20 19 19 19 18 18 17 17 16 16 16 15 15 15 15 15 15 14 13 14 13 13 13 13 13 13 13 12 12 12 12 12 12 11 11 11 11 11 11 11 11 11
19 19 19 19 18 18 18 17 17 16 16 15 15 15 15 15 15 14 14 13 13 13 13 13 13 13 13 12 12 12 11 11 11 11 11 11 11 10 10 10 10 11 11
19 19 18 18 18 18 17 17 16 16 15 15 15 14 14 14 14 14 14 13 13 13 13 13 13 13 12 12 12 11 11 11 11 11 11 11 10 10 10 10 10 10 10
18 18 18 17 17 17 17 16 16 15 15 15 14 14 14 14 14 14 14 13 13 13 13 12 12 12 12 12 12 12 11 11 11 11 11 11 11 10 10 10 9 9 9
18 18 17 17 16 16 16 16 15 15 15 15 14 14 14 14 14 13 13 13 13 12 12 12 12 12 12 11 11 11 11 11 11 11 11 11 10 10 10 9 9 9 9
18 17 17 17 16 16 16 15 15 15 15 14 14 14 14 14 13 13 13 13 12 12 12 12 12 12 11 11 11 11 11 11 11 11 10 10 10 10 10 10 9 9 9
17 17 17 16 16 16 15 15 15 15 15 14 14 14 14 13 13 13 13 12 12 12 12 11 11 11 11 11 11 11 11 10 10 10 10 10 10 10 10 9 9 9 10
16 16 16 16 16 15 15 15 15 14 14 14 14 13 13 13 13 13 13 12 12 12 11 11 11 11 11 11 11 11 11 10 10 10 10 10 10 10 10 9 9 9 9
16 16 16 15 15 15 15 15 14 14 14 14 14 13 13 13 13 12 12 12 12 11 11 11 11 11 11 11 11 11 11 10 10 10 10 10 10 10 10 9 9 9 9
15 15 15 15 15 15 14 14 14 14 14 13 13 13 13 12 12 12 12 12 11 11 11 11 11 11 11 11 11 11 10 10 10 10 10 10 9 10 9 9 9 9 9
15 15 15 15 14 14 14 14 14 13 13 13 13 13 12 12 12 12 12 11 11 11 11 11 11 11 11 10 10 10 10 10 10 9 9 9 9 9 9 9 9 9 9
14 14 14 14 14 14 14 14 13 13 13 13 13 12 12 12 12 12 11 11 11 11 11 11 11 10 10 10 10 10 10 9 9 9 9 9 9 9 9 9 9 9 9
14 14 14 14 14 14 13 13 13 13 13 13 12 12 12 12 12 11 11 11 11 11 11 11 10 10 10 10 10 9 9 9 9 9 9 9 9 9 9 9 9 9 9
14 13 13 13 13 13 13 13 13 13 13 12 12 12 12 12 11 11 11 11 11 11 10 10 10 10 10 10 9 9 9 9 9 9 9 9 8 8 8 8 8 8 8
13 13 13 13 13 13 12 12 12 12 12 12 12 12 11 11 11 11 11 11 10 10 10 10 10 10 9 9 9 9 9 9 9 8 8 8 8 8 8 8 8 8 8
13 13 13 13 12 12 12 12 12 12 12 12 12 11 11 11 11 11 11 10 10 10 10 9 9 9 9 9 9 9 9 9 8 8 8 8 8 8 8 8 8 8 8
13 13 13 13 12 12 12 12 12 12 12 12 11 11 11 11 11 10 10 10 10 10 9 9 9 9 9 9 9 9 9 8 8 8 7 7 7 7 7 7 7 7 7
13 12 12 12 12 12 12 12 12 12 12 11 11 11 11 11 10 10 10 10 10 9 9 9 9 9 9 9 9 8 8 8 8 8 7 7 7 7 7 7 7 7 7
Wind_Speed
9 8 7 6 6 5 3 2 2 1 1 1 2 2 2 3 3 4 4 4 4 4 3 3 3 2 1 1 1 1 2 3 5 3 4 4 4 5 5 6 8 9 12
9 8 8 7 6 5 5 4 3 3 2 2 2 2 3 3 3 3 4 4 4 4 4 4 3 2 2 2 2 2 3 3 5 6 4 3 4 4 5 4 6 7 10
10 9 8 8 7 6 5 5 4 4 3 3 3 3 3 3 3 3 4 4 4 4 4 4 3 3 2 2 2 3 3 4 5 6 5 3 3 3 4 5 5 5 7
10 10 9 8 8 7 6 5 5 4 4 3 3 3 3 3 3 3 4 4 4 4 4 4 4 4 3 2 3 3 4 5 5 5 5 5 4 3 3 4 4 4 4
11 10 9 8 8 7 6 6 5 4 4 4 3 3 3 2 3 3 3 3 4 4 4 4 5 6 7 5 3 3 3 3 4 5 5 4 4 3 2 2 4 4 4
11 10 9 9 8 8 7 6 5 5 4 4 3 3 3 3 6 5 3 3 3 4 4 4 5 5 6 7 7 7 5 3 3 3 4 4 3 3 2 2 3 3 3
10 10 10 10 9 8 7 7 6 6 5 4 4 3 4 5 5 4 3 3 4 4 4 3 4 5 4 4 6 7 7 6 3 1 3 3 4 3 2 3 3 2 2
11 11 10 10 9 8 8 7 6 6 5 4 4 4 4 4 4 3 1 3 4 4 4 4 4 4 3 2 4 6 6 5 4 3 3 2 3 2 2 2 3 3 3
11 11 10 10 10 9 8 7 6 6 5 4 4 4 4 4 3 1 3 4 4 4 4 4 4 4 4 3 4 5 6 5 7 7 5 5 5 3 1 2 3 3 3
10 10 10 10 9 9 8 8 7 6 5 5 5 4 4 4 4 1 4 3 3 4 4 4 5 4 3 3 3 4 4 4 4 5 6 6 6 6 4 1 1 1 2
9 9 9 9 9 9 8 7 7 6 6 5 5 4 4 3 5 2 3 1 2 2 3 3 4 4 3 2 0 2 3 2 3 3 4 4 4 3 3 2 0 1 1
10 10 9 9 8 8 8 7 7 6 6 6 5 5 4 4 3 4 2 1 3 2 2 2 4 5 3 1 1 2 2 3 2 2 3 3 3 2 2 1 1 1 1
10 10 9 9 8 8 8 8 7 7 6 5 5 5 4 4 5 6 5 2 0 1 2 5 4 4 4 3 4 3 4 3 2 2 2 2 2 2 2 3 3 3 2
10 9 9 8 8 8 7 7 7 7 6 6 5 5 5 5 4 5 5 5 6 4 4 5 5 4 3 2 4 4 4 2 2 2 2 2 2 2 2 1 2 2 2
9 9 8 8 7 7 6 4 5 4 4 4 5 5 5 5 4 3 3 4 4 3 4 4 4 4 4 4 4 3 3 3 3 3 3 3 3 3 2 2 1 2 2
8 8 7 7 7 7 6 5 2 1 4 2 1 2 2 3 6 6 3 2 2 3 4 4 4 4 4 4 4 4 4 4 3 3 3 3 3 3 3 2 2 3 2
8 7 6 7 7 7 7 7 6 3 3 3 4 3 3 6 7 7 6 5 5 6 6 5 5 4 4 4 4 4 4 3 3 3 3 3 3 3 3 3 3 3 3
7 7 7 6 7 7 7 7 7 7 6 5 5 7 8 9 9 9 8 7 6 7 6 6 5 5 5 4 4 4 3 3 4 4 4 3 3 4 4 4 4 3 3
6 5 5 5 6 6 6 6 6 6 6 5 5 5 8 9 9 9 10 7 7 6 6 6 5 5 5 4 4 4 4 4 4 4 4 4 4 4 4 4 4 3 4
5 5 5 6 6 6 6 6 6 6 6 5 5 5 6 6 6 7 8 7 7 6 6 6 5 5 5 4 4 5 5 4 4 5 4 4 5 5 5 5 4 4 4
5 6 6 6 6 6 6 6 5 6 6 6 5 5 6 7 7 8 7 7 7 6 6 6 5 5 5 5 5 6 6 5 5 5 4 4 5 4 4 4 4 4 4
5 6 7 6 6 6 5 5 5 5 6 6 5 6 8 7 7 7 6 6 6 5 5 6 6 5 5 5 5 5 6 5 5 5 4 4 4 5 5 5 4 4 5
5 6 6 6 6 6 6 6 6 6 6 6 5 5 6 6 6 6 6 5 5 5 6 6 6 6 6 6 6 5 5 5 4 4 4 4 4 5 5 5 5 5 5
5 6 6 6 6 6 6 6 5 5 5 5 5 5 5 6 6 6 6 5 5 6 6 6 6 6 6 6 6 6 5 5 6 6 6 5 5 5 4 4 5 6 6
5 5 6 6 6 5 5 5 5 5 5 5 5 5 5 5 5 5 5 5 6 6 6 7 6 7 8 8 7 6 5 5 5 5 5 5 5 5 5 5 5 6 5
4 5 5 5 5 5 5 5 5 5 5 5 5 5 5 5 5 5 5 5 5 6 6 6 7 7 7 7 7 6 5 6 5 5 5 4 5 5 5 5 5 5 5
Wind_Direction
175 173 173 171 171 170 167 161 151 119 88 50 37 41 41 34 30 34 40 41 43 46 41 51 50 37 45 79 94 109 111 125 131 118 105 99 97 90 88 88 93 91 88
171 169 168 165 164 163 154 146 138 124 109 90 76 63 56 50 44 48 45 44 43 43 43 48 45 60 67 60 84 102 104 112 133 130 123 111 99 95 94 91 91 91 95
167 165 162 162 159 157 149 143 137 130 118 104 93 81 65 60 59 59 57 53 49 46 43 43 43 54 62 74 77 93 106 114 123 132 130 116 108 106 109 106 101 97 101
164 163 162 163 159 154 149 146 143 137 129 117 107 97 86 75 70 66 66 62 56 52 44 44 44 51 63 87 100 104 111 121 131 134 131 129 123 125 131 126 119 108 93
163 163 161 159 156 154 152 149 144 141 133 122 117 111 105 97 69 60 75 74 65 60 56 55 58 56 44 42 64 94 117 130 137 137 134 130 125 133 137 139 123 122 116
161 159 157 157 158 157 153 148 143 139 132 130 125 115 96 73 57 30 18 80 70 66 64 68 89 84 82 73 63 64 66 107 127 137 133 139 143 144 149 155 136 134 125
159 159 160 160 157 155 151 147 146 145 142 139 135 122 104 87 76 59 27 82 81 70 65 56 64 82 95 105 114 119 89 74 76 133 132 137 145 147 168 166 147 138 102
163 162 162 162 157 153 151 149 148 147 147 145 139 131 122 108 100 93 333 114 93 83 76 73 73 74 63 78 108 103 99 90 83 103 113 124 123 138 177 164 149 146 144
167 166 165 164 159 156 155 154 153 152 151 153 146 143 138 129 118 140 276 131 115 101 88 76 78 88 45 12 115 114 110 110 100 96 93 107 112 122 145 165 156 168 148
171 169 167 164 162 160 157 157 157 157 159 159 147 152 150 140 131 177 277 163 135 129 117 105 75 77 65 17 121 121 116 108 109 120 128 143 144 143 158 186 196 196 175
168 166 163 161 160 157 154 156 157 161 158 156 151 158 160 149 149 161 295 229 157 152 136 125 101 102 100 40 346 122 121 146 143 143 143 144 146 146 159 153 269 273 258
163 162 158 159 162 156 154 157 159 160 163 166 167 172 167 165 158 158 175 314 331 145 138 122 108 115 122 134 148 117 180 227 178 151 145 148 159 163 162 176 156 293 323
158 158 157 159 161 161 164 164 168 176 183 180 182 182 176 167 154 151 162 162 315 169 115 84 106 155 175 165 158 187 208 205 180 173 165 164 159 137 167 170 169 173 174
158 159 160 164 168 170 179 180 184 185 189 190 192 192 184 179 177 171 170 166 169 173 159 145 163 192 207 151 169 190 207 200 203 196 183 171 161 162 182 174 178 189 191
162 165 168 171 173 176 182 184 193 190 193 200 201 200 196 194 170 149 185 188 192 171 171 184 189 188 191 189 193 198 200 190 204 208 194 188 187 188 185 177 198 226 231
170 174 177 179 175 179 175 172 84 120 122 130 19 250 181 129 141 150 159 148 145 173 203 202 204 206 207 205 205 199 202 206 212 216 212 210 208 205 202 201 215 234 239
178 179 184 182 182 187 187 185 182 163 140 164 184 187 178 158 161 170 175 175 186 193 211 214 215 217 221 222 221 219 212 198 216 225 226 222 220 216 213 216 225 233 243
181 178 188 189 191 192 194 193 191 191 191 195 191 185 180 176 178 179 175 177 194 204 218 223 219 218 225 232 226 221 213 202 207 222 224 226 229 228 226 228 230 240 247
187 186 189 192 194 194 195 195 194 199 198 192 183 178 179 178 182 187 184 206 214 212 218 224 226 227 225 224 225 222 222 220 217 225 225 228 232 234 237 239 236 215 253
183 173 186 190 190 192 195 198 198 197 197 196 198 190 176 187 200 195 204 219 223 221 222 224 225 229 228 226 222 223 223 219 213 223 226 226 230 234 236 242 250 245 246
176 172 186 193 194 194 197 201 201 199 199 200 205 192 185 203 211 209 211 218 226 229 226 228 226 222 221 224 225 224 225 221 217 224 226 226 232 236 243 246 246 255 261
178 177 189 197 195 197 198 200 202 203 204 206 201 186 186 213 218 218 217 219 222 226 231 231 229 225 225 225 223 222 221 222 221 220 224 230 235 239 242 245 247 256 262
182 181 190 196 196 188 199 203 203 203 206 208 206 195 194 213 219 220 219 221 222 226 225 225 230 228 219 219 218 218 222 225 224 224 232 237 243 241 241 248 253 261 264
187 187 191 191 191 194 199 201 203 206 209 208 207 208 209 211 220 222 220 218 220 222 222 221 222 221 221 217 213 212 212 223 229 224 228 242 250 254 251 251 255 262 266
192 191 189 187 186 192 196 200 204 208 209 207 207 208 211 212 215 218 219 215 217 219 216 215 215 217 218 214 215 214 195 195 218 234 223 234 249 259 262 261 263 265 265
195 189 189 188 187 193 198 202 204 208 212 211 210 206 206 210 214 216 216 215 214 211 212 211 212 210 210 211 209 199 175 178 194 230 240 236 242 248 254 260 267 267 267
Height
1542 1543 1545 1546 1547 1548 1548 1548 1548 1548 1548 1548 1547 1547 1546 1545 1544 1543 1543 1542 1541 1541 1540 1539 1539 1539 1539 1539 1539 1540 1540 1541 1542 1543 1544 1545 1545 1546 1546 1546 1546 1545 1544
1540 1542 1543 1544 1546 1547 1547 1547 1548 1548 1548 1547 1547 1546 1546 1545 1544 1543 1543 1542 1541 1540 1540 1539 1539 1539 1538 1539 1539 1539 1540 1540 1541 1542 1544 1545 1545 1546 1546 1546 1547 1547 1545
1538 1540 1542 1543 1544 1545 1546 1546 1547 1547 1547 1547 1546 1546 1546 1545 1544 1544 1543 1542 1541 1541 1540 1539 1539 1538 1538 1538 1538 1539 1540 1540 1541 1542 1543 1544 1545 1546 1546 1547 1547 1547 1547
1536 1538 1540 1542 1543 1544 1545 1546 1546 1546 1547 1547 1546 1546 1546 1545 1545 1544 1543 1543 1542 1541 1540 1539 1539 1538 1538 1538 1539 1539 1539 1540 1541 1542 1543 1544 1545 1546 1546 1547 1548 1548 1548
1534 1537 1539 1540 1542 1543 1544 1545 1545 1546 1546 1546 1546 1546 1546 1545 1545 1544 1544 1543 1542 1541 1540 1540 1539 1538 1538 1538 1539 1539 1539 1540 1541 1542 1543 1544 1545 1546 1547 1547 1548 1548 1547
1532 1534 1537 1538 1540 1541 1542 1544 1544 1545 1545 1546 1546 1546 1546 1545 1544 1543 1543 1543 1542 1542 1541 1540 1539 1538 1538 1538 1538 1538 1539 1539 1541 1542 1543 1543 1544 1545 1546 1547 1547 1548 1548
1530 1532 1534 1536 1538 1539 1541 1542 1543 1544 1544 1545 1545 1545 1545 1544 1544 1544 1543 1543 1542 1542 1541 1540 1540 1539 1539 1539 1539 1539 1539 1539 1540 1541 1542 1543 1544 1544 1545 1546 1547 1547 1547
1527 1530 1532 1534 1536 1537 1539 1540 1541 1543 1543 1544 1544 1544 1544 1544 1544 1543 1543 1543 1542 1542 1541 1541 1540 1539 1539 1539 1540 1539 1539 1539 1540 1541 1542 1542 1543 1544 1544 1545 1545 1545 1546
1525 1527 1529 1532 1533 1535 1536 1538 1540 1541 1542 1543 1543 1544 1544 1544 1543 1543 1543 1543 1543 1542 1542 1541 1541 1540 1539 1539 1540 1540 1540 1540 1540 1540 1541 1541 1542 1543 1543 1545 1545 1545 1546
1523 1525 1526 1528 1531 1532 1534 1536 1538 1539 1540 1542 1542 1543 1543 1543 1543 1543 1543 1544 1543 1543 1542 1541 1541 1540 1540 1540 1541 1541 1540 1541 1542 1541 1541 1541 1542 1542 1543 1543 1544 1545 1545
1520 1522 1524 1526 1528 1530 1532 1534 1535 1537 1538 1540 1540 1541 1541 1542 1542 1542 1542 1542 1543 1543 1543 1542 1541 1541 1540 1540 1540 1541 1541 1541 1542 1542 1542 1542 1542 1542 1542 1542 1543 1543 1544
1517 1520 1521 1524 1526 1528 1530 1532 1534 1535 1536 1537 1538 1539 1540 1540 1540 1540 1540 1540 1541 1541 1541 1541 1541 1540 1540 1540 1540 1540 1540 1540 1541 1542 1542 1542 1542 1542 1542 1541 1541 1541 1541
1514 1516 1519 1521 1524 1525 1527 1529 1531 1533 1535 1536 1537 1538 1538 1539 1538 1538 1539 1539 1539 1539 1540 1539 1539 1539 1539 1539 1539 1539 1540 1540 1541 1541 1541 1541 1541 1540 1540 1540 1540 1540 1540
1512 1514 1516 1519 1521 1523 1525 1527 1529 1530 1532 1533 1534 1535 1536 1536 1537 1537 1537 1537 1537 1538 1538 1538 1538 1538 1538 1538 1538 1538 1539 1539 1539 1540 1540 1540 1539 1539 1539 1539 1539 1539 1539
1509 1511 1514 1516 1518 1520 1522 1523 1525 1527 1528 1530 1531 1532 1533 1533 1534 1534 1535 1535 1536 1536 1536 1536 1537 1537 1537 1537 1537 1537 1538 1538 1538 1538 1538 1538 1538 1538 1538 1538 1538 1538 1538
1506 1508 1511 1513 1515 1517 1519 1520 1521 1523 1524 1525 1527 1528 1529 1530 1530 1531 1532 1532 1532 1533 1534 1534 1535 1535 1536 1536 1536 1536 1536 1536 1536 1536 1536 1536 1536 1536 1536 1536 1536 1536 1535
1503 1505 1507 1510 1511 1514 1515 1517 1518 1520 1521 1522 1523 1524 1525 1526 1527 1528 1529 1529 1530 1530 1531 1532 1532 1533 1533 1533 1533 1533 1533 1533 1533 1534 1534 1534 1534 1534 1534 1533 1533 1533 1533
1500 1502 1504 1506 1508 1510 1512 1513 1515 1516 1517 1518 1519 1520 1522 1523 1524 1524 1525 1526 1526 1527 1528 1529 1529 1529 1530 1530 1530 1530 1531 1531 1530 1531 1531 1531 1531 1531 1531 1531 1531 1530 1530
1497 1499 1501 1504 1505 1507 1509 1510 1512 1513 1515 1515 1516 1517 1518 1519 1520 1521 1521 1523 1523 1523 1524 1525 1525 1526 1526 1526 1526 1527 1527 1527 1527 1528 1528 1528 1528 1528 1528 1528 1528 1527 1527
1493 1496 1498 1501 1503 1504 1505 1507 1509 1510 1511 1512 1513 1514 1515 1516 1516 1517 1517 1519 1520 1520 1521 1521 1521 1522 1522 1522 1522 1522 1523 1524 1524 1524 1524 1524 1525 1525 1525 1525 1525 1525 1525
1490 1492 1495 1498 1500 1501 1502 1504 1505 1506 1507 1508 1510 1510 1511 1512 1513 1513 1514 1514 1515 1516 1517 1517 1517 1517 1517 1518 1518 1518 1519 1520 1520 1520 1521 1521 1522 1522 1522 1522 1522 1522 1521
1487 1489 1492 1495 1496 1498 1498 1500 1501 1502 1503 1505 1506 1506 1506 1508 1509 1510 1510 1510 1511 1511 1512 1513 1513 1513 1513 1513 1514 1514 1515 1516 1516 1517 1517 1518 1518 1519 1519 1519 1518 1518 1518
1485 1486 1489 1491 1493 1494 1495 1497 1498 1499 1500 1501 1502 1502 1502 1503 1504 1505 1505 1505 1506 1506 1507 1508 1508 1509 1509 1509 1509 1510 1511 1511 1512 1513 1513 1514 1515 1515 1515 1515 1515 1515 1514
1482 1484 1487 1489 1490 1491 1492 1493 1494 1495 1496 1497 1497 1498 1498 1499 1500 1500 1501 1501 1501 1502 1502 1503 1503 1504 1505 1505 1506 1506 1507 1507 1508 1509 1509 1510 1511 1511 1511 1511 1511 1511 1511
1481 1483 1484 1486 1487 1488 1489 1490 1491 1492 1493 1493 1494 1494 1495 1495 1495 1496 1496 1497 1497 1497 1498 1498 1499 1500 1500 1501 1502 1502 1503 1503 1504 1505 1505 1506 1507 1507 1508 1508 1508 1508 1507
1479 1480 1482 1483 1485 1486 1486 1487 1488 1489 1490 1490 1490 1491 1491 1492 1492 1492 1492 1493 1493 1493 1494 1494 1495 1495 1496 1497 1497 1498 1498 1499 1499 1500 1501 1502 1503 1504 1504 1504 1504 1503 1503